Time,TemperatureF,DewpointF,PressureIn,WindDirection,WindDirectionDegrees,WindSpeedMPH,WindSpeedGustMPH,Humidity,HourlyPrecipIn,Conditions,Clouds,dailyrainin,SoftwareType,DateUTC
2013-03-26 00:00:00,29.7,20.8,30.18,WNW,283,5.0,9.0,69,0.00,,OVC060,0.00,VWS V14.01,2013-03-26 05:00:00,
2013-03-26 00:05:00,29.5,20.6,30.18,WNW,299,5.0,10.0,69,0.00,,OVC060,0.00,VWS V14.01,2013-03-26 05:05:00,
2013-03-26 00:10:00,29.5,20.6,30.18,NW,319,1.0,5.0,69,0.00,,OVC060,0.00,VWS V14.01,2013-03-26 05:10:00,
2013-03-26 00:15:00,29.4,20.8,30.18,NW,309,0.0,4.0,70,0.00,,OVC060,0.00,VWS V14.01,2013-03-26 05:15:00,
2013-03-26 00:20:00,29.3,20.7,30.18,NW,305,2.0,6.0,70,0.00,,OVC060,0.00,VWS V14.01,2013-03-26 05:20:00,
2013-03-26 00:25:00,29.3,20.7,30.18,WNW,289,4.0,10.0,70,0.00,,OVC060,0.00,VWS V14.01,2013-03-26 05:25:00,
2013-03-26 00:30:00,29.1,20.5,30.18,NNW,327,0.0,10.0,70,0.00,,OVC060,0.00,VWS V14.01,2013-03-26 05:30:00,
2013-03-26 00:35:00,29.0,20.8,30.18,WNW,297,0.0,9.0,71,0.00,,OVC060,0.00,VWS V14.01,2013-03-26 05:35:00,
2013-03-26 00:40:00,29.0,20.8,30.18,WNW,288,6.0,7.0,71,0.00,,OVC060,0.00,VWS V14.01,2013-03-26 05:40:00,
2013-03-26 00:45:00,28.8,20.6,30.18,NNW,327,3.0,10.0,71,0.00,,OVC060,0.00,VWS V14.01,2013-03-26 05:45:00,
2013-03-26 00:50:00,28.7,20.5,30.18,WNW,290,5.0,10.0,71,0.00,,OVC060,0.00,VWS V14.01,2013-03-26 05:50:00,
2013-03-26 00:55:00,28.7,20.5,30.18,WNW,292,9.0,10.0,71,0.00,,OVC060,0.00,VWS V14.01,2013-03-26 05:55:00,
2013-03-26 01:00:00,28.5,20.3,30.18,WNW,288,4.0,12.0,71,0.00,,OVC060,0.00,VWS V14.01,2013-03-26 06:00:00,
2013-03-26 01:05:00,28.5,20.6,30.18,NW,306,0.0,6.0,72,0.00,,OVC060,0.00,VWS V14.01,2013-03-26 06:05:00,
2013-03-26 01:10:00,28.4,20.5,30.18,NW,307,0.0,5.0,72,0.00,,OVC060,0.00,VWS V14.01,2013-03-26 06:10:00,
2013-03-26 01:15:00,28.4,20.5,30.18,NW,321,0.0,7.0,72,0.00,,OVC060,0.00,VWS V14.01,2013-03-26 06:15:00,
2013-03-26 01:20:00,28.4,20.5,30.18,NW,319,0.0,4.0,72,0.00,,OVC060,0.00,VWS V14.01,2013-03-26 06:20:00,
2013-03-26 01:25:00,28.2,20.4,30.18,WNW,300,1.0,5.0,72,0.00,,OVC060,0.00,VWS V14.01,2013-03-26 06:25:00,
2013-03-26 01:30:00,28.2,20.4,30.18,NW,311,3.0,5.0,72,0.00,,OVC060,0.00,VWS V14.01,2013-03-26 06:30:00,
2013-03-26 01:35:00,28.2,20.4,30.18,WNW,291,1.0,7.0,72,0.00,,OVC060,0.00,VWS V14.01,2013-03-26 06:35:00,
2013-03-26 01:40:00,28.2,20.4,30.18,West,279,0.0,4.0,72,0.00,,OVC060,0.00,VWS V14.01,2013-03-26 06:40:00,
2013-03-26 01:45:00,28.2,20.4,30.18,NW,321,0.0,9.0,72,0.00,,OVC060,0.00,VWS V14.01,2013-03-26 06:45:00,
2013-03-26 01:50:00,28.2,20.4,30.18,NW,309,0.0,4.0,72,0.00,,OVC060,0.00,VWS V14.01,2013-03-26 06:50:00,
2013-03-26 01:55:00,28.1,20.2,30.18,NW,316,2.0,7.0,72,0.00,,OVC060,0.00,VWS V14.01,2013-03-26 06:55:00,
2013-03-26 02:00:00,28.1,20.2,30.18,NW,309,3.0,4.0,72,0.00,,OVC060,0.00,VWS V14.01,2013-03-26 07:00:00,
2013-03-26 02:05:00,28.1,19.9,30.18,NNW,340,0.0,9.0,71,0.00,,OVC060,0.00,VWS V14.01,2013-03-26 07:05:00,
2013-03-26 02:10:00,28.1,19.9,30.18,NW,316,0.0,7.0,71,0.00,,OVC060,0.00,VWS V14.01,2013-03-26 07:10:00,
2013-03-26 02:15:00,27.9,19.7,30.18,WNW,292,2.0,7.0,71,0.00,,OVC060,0.00,VWS V14.01,2013-03-26 07:15:00,
2013-03-26 02:20:00,27.9,19.7,30.18,NW,306,2.0,6.0,71,0.00,,OVC060,0.00,VWS V14.01,2013-03-26 07:20:00,
2013-03-26 02:25:00,27.9,19.7,30.18,WNW,297,2.0,5.0,71,0.00,,OVC060,0.00,VWS V14.01,2013-03-26 07:25:00,
2013-03-26 02:30:00,27.9,19.7,30.18,WNW,301,0.0,7.0,71,0.00,,OVC060,0.00,VWS V14.01,2013-03-26 07:30:00,
2013-03-26 02:35:00,27.8,19.6,30.18,NW,311,0.0,7.0,71,0.00,,OVC060,0.00,VWS V14.01,2013-03-26 07:35:00,
2013-03-26 02:40:00,27.8,19.6,30.18,NW,311,0.0,4.0,71,0.00,,OVC060,0.00,VWS V14.01,2013-03-26 07:40:00,
2013-03-26 02:45:00,27.8,19.6,30.19,NW,311,0.0,7.0,71,0.00,,OVC060,0.00,VWS V14.01,2013-03-26 07:45:00,
2013-03-26 02:50:00,27.8,19.6,30.19,WNW,298,1.0,9.0,71,0.00,,OVC060,0.00,VWS V14.01,2013-03-26 07:50:00,
2013-03-26 02:55:00,27.6,19.4,30.19,WNW,303,3.0,7.0,71,0.00,,OVC060,0.00,VWS V14.01,2013-03-26 07:55:00,
2013-03-26 03:00:00,27.6,19.4,30.19,WNW,299,2.0,6.0,71,0.00,,OVC060,0.00,VWS V14.01,2013-03-26 08:00:00,
2013-03-26 03:05:00,27.6,19.4,30.19,WNW,294,1.0,5.0,71,0.00,,OVC060,0.00,VWS V14.01,2013-03-26 08:05:00,
2013-03-26 03:10:00,27.5,19.4,30.19,NW,319,0.0,4.0,71,0.00,,OVC060,0.00,VWS V14.01,2013-03-26 08:10:00,
2013-03-26 03:15:00,27.3,19.1,30.19,WNW,298,0.0,9.0,71,0.00,,OVC060,0.00,VWS V14.01,2013-03-26 08:15:00,
2013-03-26 03:20:00,27.3,19.1,30.19,NW,325,0.0,4.0,71,0.00,,OVC060,0.00,VWS V14.01,2013-03-26 08:20:00,
2013-03-26 03:25:00,27.2,19.1,30.19,NW,321,0.0,6.0,71,0.00,,OVC060,0.00,VWS V14.01,2013-03-26 08:25:00,
2013-03-26 03:30:00,27.2,19.1,30.19,NW,311,0.0,5.0,71,0.00,,OVC060,0.00,VWS V14.01,2013-03-26 08:30:00,
2013-03-26 03:35:00,27.2,19.4,30.19,WNW,302,0.0,4.0,72,0.00,,OVC060,0.00,VWS V14.01,2013-03-26 08:35:00,
2013-03-26 03:40:00,27.0,19.2,30.19,NNW,329,0.0,6.0,72,0.00,,OVC060,0.00,VWS V14.01,2013-03-26 08:40:00,
2013-03-26 03:45:00,27.0,19.2,30.19,NNW,329,0.0,0.0,72,0.00,,OVC060,0.00,VWS V14.01,2013-03-26 08:45:00,
2013-03-26 03:50:00,27.0,19.2,30.19,NW,315,0.0,0.0,72,0.00,,---,0.00,VWS V14.01,2013-03-26 08:50:00,
2013-03-26 03:55:00,27.0,19.2,30.19,WNW,288,0.0,3.0,72,0.00,,OVC060,0.00,VWS V14.01,2013-03-26 08:55:00,
2013-03-26 04:00:00,26.9,19.1,30.19,NW,306,0.0,3.0,72,0.00,,OVC060,0.00,VWS V14.01,2013-03-26 09:00:00,
2013-03-26 04:05:00,26.9,19.1,30.19,WNW,301,0.0,5.0,72,0.00,,OVC060,0.00,VWS V14.01,2013-03-26 09:05:00,
2013-03-26 04:10:00,26.7,18.9,30.19,WNW,290,2.0,5.0,72,0.00,,OVC060,0.00,VWS V14.01,2013-03-26 09:10:00,
2013-03-26 04:15:00,26.6,18.8,30.20,WNW,290,0.0,7.0,72,0.00,,OVC060,0.00,VWS V14.01,2013-03-26 09:15:00,
2013-03-26 04:20:00,26.4,18.9,30.20,WNW,299,2.0,5.0,73,0.00,,OVC060,0.00,VWS V14.01,2013-03-26 09:20:00,
2013-03-26 04:25:00,26.3,18.8,30.20,NW,313,0.0,2.0,73,0.00,,OVC060,0.00,VWS V14.01,2013-03-26 09:25:00,
2013-03-26 04:30:00,26.3,18.8,30.20,WNW,292,0.0,4.0,73,0.00,,---,0.00,VWS V14.01,2013-03-26 09:30:00,
2013-03-26 04:35:00,26.1,18.6,30.20,WNW,294,0.0,5.0,73,0.00,,OVC060,0.00,VWS V14.01,2013-03-26 09:35:00,
2013-03-26 04:40:00,26.0,18.5,30.20,WNW,292,1.0,6.0,73,0.00,,---,0.00,VWS V14.01,2013-03-26 09:40:00,
2013-03-26 04:45:00,26.0,18.9,30.20,West,277,0.0,3.0,74,0.00,,OVC060,0.00,VWS V14.01,2013-03-26 09:45:00,
2013-03-26 04:50:00,25.8,18.7,30.20,West,270,2.0,7.0,74,0.00,,---,0.00,VWS V14.01,2013-03-26 09:50:00,
2013-03-26 04:52:00,27.0,19.2,30.19,NW,312,0.0,0.0,72,0.00,,OVC060,0.00,VWS V14.01,2013-03-26 09:52:00,
2013-03-26 04:55:00,25.8,18.7,30.20,NW,313,0.0,4.0,74,0.00,,OVC060,0.00,VWS V14.01,2013-03-26 09:55:00,
2013-03-26 05:00:00,25.8,18.7,30.20,WNW,292,2.0,6.0,74,0.00,,---,0.00,VWS V14.01,2013-03-26 10:00:00,
2013-03-26 05:05:00,25.7,18.6,30.20,WNW,292,0.0,0.0,74,0.00,,---,0.00,VWS V14.01,2013-03-26 10:05:00,
2013-03-26 05:10:00,25.7,18.6,30.20,WNW,292,0.0,0.0,74,0.00,,---,0.00,VWS V14.01,2013-03-26 10:10:00,
2013-03-26 05:15:00,25.7,18.6,30.21,WNW,292,0.0,0.0,74,0.00,,---,0.00,VWS V14.01,2013-03-26 10:15:00,
2013-03-26 05:20:00,25.7,18.6,30.21,WNW,292,0.0,5.0,74,0.00,,---,0.00,VWS V14.01,2013-03-26 10:20:00,
2013-03-26 05:25:00,25.7,18.6,30.21,NW,315,1.0,7.0,74,0.00,,---,0.00,VWS V14.01,2013-03-26 10:25:00,
2013-03-26 05:30:00,25.6,18.5,30.21,WNW,292,1.0,7.0,74,0.00,,---,0.00,VWS V14.01,2013-03-26 10:30:00,
2013-03-26 05:32:00,26.3,18.8,30.20,WNW,297,4.0,4.0,73,0.00,,OVC060,0.00,VWS V14.01,2013-03-26 10:32:00,
2013-03-26 05:35:00,25.6,18.5,30.21,WNW,292,1.0,7.0,74,0.00,,---,0.00,VWS V14.01,2013-03-26 10:35:00,
2013-03-26 05:40:00,25.6,18.5,30.21,WNW,292,1.0,7.0,74,0.00,,---,0.00,VWS V14.01,2013-03-26 10:40:00,
2013-03-26 05:42:00,26.0,18.5,30.20,WNW,283,0.0,6.0,73,0.00,,OVC060,0.00,VWS V14.01,2013-03-26 10:42:00,
2013-03-26 05:45:00,25.4,18.3,30.21,WNW,292,2.0,6.0,74,0.00,,---,0.00,VWS V14.01,2013-03-26 10:45:00,
2013-03-26 05:50:00,25.4,18.3,30.21,WNW,292,2.0,6.0,74,0.00,,---,0.00,VWS V14.01,2013-03-26 10:50:00,
2013-03-26 05:52:00,25.8,18.7,30.20,WNW,292,2.0,7.0,74,0.00,,OVC060,0.00,VWS V14.01,2013-03-26 10:52:00,
2013-03-26 05:55:00,25.3,18.2,30.21,WNW,292,1.0,7.0,74,0.00,,---,0.00,VWS V14.01,2013-03-26 10:55:00,
2013-03-26 06:00:00,25.1,18.0,30.22,WNW,292,2.0,10.0,74,0.00,,---,0.00,VWS V14.01,2013-03-26 11:00:00,
2013-03-26 06:02:00,25.8,18.7,30.20,NW,307,0.0,6.0,74,0.00,,OVC060,0.00,VWS V14.01,2013-03-26 11:02:00,
2013-03-26 06:05:00,25.1,18.0,30.22,WNW,292,0.0,0.0,74,0.00,,---,0.00,VWS V14.01,2013-03-26 11:05:00,
2013-03-26 06:10:00,25.1,18.0,30.22,WNW,292,0.0,0.0,74,0.00,,---,0.00,VWS V14.01,2013-03-26 11:10:00,
2013-03-26 06:12:00,25.7,18.6,30.20,NW,313,0.0,0.0,74,0.00,,OVC060,0.00,VWS V14.01,2013-03-26 11:12:00,
2013-03-26 06:15:00,25.0,17.9,30.22,WNW,292,0.0,0.0,74,0.00,,---,0.00,VWS V14.01,2013-03-26 11:15:00,
2013-03-26 06:17:00,25.7,18.6,30.21,NW,313,0.0,0.0,74,0.00,,OVC060,0.00,VWS V14.01,2013-03-26 11:17:00,
2013-03-26 06:20:00,25.0,17.9,30.22,WNW,292,1.0,3.0,74,0.00,,---,0.00,VWS V14.01,2013-03-26 11:20:00,
2013-03-26 06:23:00,25.7,18.6,30.21,WNW,295,5.0,5.0,74,0.00,,OVC060,0.00,VWS V14.01,2013-03-26 11:23:00,
2013-03-26 06:25:00,25.0,18.2,30.22,WNW,292,1.0,4.0,75,0.00,,---,0.00,VWS V14.01,2013-03-26 11:25:00,
2013-03-26 06:30:00,25.0,17.9,30.23,WNW,292,2.0,5.0,74,0.00,,---,0.00,VWS V14.01,2013-03-26 11:30:00,
2013-03-26 06:32:00,25.6,18.5,30.21,NW,315,0.0,6.0,74,0.00,,OVC060,0.00,VWS V14.01,2013-03-26 11:32:00,
2013-03-26 06:35:00,25.0,17.9,30.23,NW,315,1.0,4.0,74,0.00,,---,0.00,VWS V14.01,2013-03-26 11:35:00,
2013-03-26 06:40:00,25.0,18.2,30.23,NW,315,0.0,0.0,75,0.00,,---,0.00,VWS V14.01,2013-03-26 11:40:00,
2013-03-26 06:42:00,25.6,18.5,30.21,NW,304,0.0,7.0,74,0.00,,OVC060,0.00,VWS V14.01,2013-03-26 11:42:00,
2013-03-26 06:45:00,25.0,18.2,30.23,WNW,292,1.0,6.0,75,0.00,,---,0.00,VWS V14.01,2013-03-26 11:45:00,
2013-03-26 06:47:00,25.4,18.3,30.21,WNW,298,0.0,6.0,74,0.00,,OVC060,0.00,VWS V14.01,2013-03-26 11:47:00,
2013-03-26 06:50:00,25.0,17.9,30.23,NW,315,1.0,6.0,74,0.00,,---,0.00,VWS V14.01,2013-03-26 11:50:00,
2013-03-26 06:52:00,25.4,18.3,30.21,WNW,291,0.0,6.0,74,0.00,,OVC060,0.00,VWS V14.01,2013-03-26 11:52:00,
2013-03-26 06:55:00,25.0,17.9,30.23,NW,315,1.0,6.0,74,0.00,,---,0.00,VWS V14.01,2013-03-26 11:55:00,
2013-03-26 07:00:00,25.0,17.9,30.24,NW,315,1.0,4.0,74,0.00,,---,0.00,VWS V14.01,2013-03-26 12:00:00,
2013-03-26 07:02:00,25.1,18.0,30.22,NW,307,0.0,10.0,74,0.00,,OVC060,0.00,VWS V14.01,2013-03-26 12:02:00,
2013-03-26 07:05:00,25.0,17.9,30.24,WNW,292,2.0,4.0,74,0.00,,---,0.00,VWS V14.01,2013-03-26 12:05:00,
2013-03-26 07:07:00,25.1,18.0,30.22,NW,311,0.0,0.0,74,0.00,,OVC060,0.00,VWS V14.01,2013-03-26 12:07:00,
2013-03-26 07:10:00,25.1,18.0,30.24,WNW,292,2.0,5.0,74,0.00,,---,0.00,VWS V14.01,2013-03-26 12:10:00,
2013-03-26 07:15:00,25.1,18.0,30.24,NW,315,1.0,6.0,74,0.00,,---,0.00,VWS V14.01,2013-03-26 12:15:00,
2013-03-26 07:17:00,25.0,17.9,30.22,NW,310,0.0,0.0,74,0.00,,OVC060,0.00,VWS V14.01,2013-03-26 12:17:00,
2013-03-26 07:20:00,25.3,18.2,30.24,NW,315,0.0,0.0,74,0.00,,---,0.00,VWS V14.01,2013-03-26 12:20:00,
2013-03-26 07:22:00,25.0,17.9,30.22,NW,307,1.0,3.0,74,0.00,,OVC060,0.00,VWS V14.01,2013-03-26 12:22:00,
2013-03-26 07:25:00,25.3,18.2,30.24,NW,315,0.0,0.0,74,0.00,,---,0.00,VWS V14.01,2013-03-26 12:25:00,
2013-03-26 07:27:00,25.0,18.2,30.22,WNW,298,0.0,4.0,75,0.00,,OVC060,0.00,VWS V14.01,2013-03-26 12:27:00,
2013-03-26 07:30:00,25.4,18.3,30.25,NW,315,0.0,5.0,74,0.00,,---,0.00,VWS V14.01,2013-03-26 12:30:00,
2013-03-26 07:35:00,25.6,18.2,30.25,NW,315,0.0,0.0,73,0.00,,---,0.00,VWS V14.01,2013-03-26 12:35:00,
2013-03-26 07:37:00,25.0,17.9,30.23,NW,323,0.0,4.0,74,0.00,,OVC060,0.00,VWS V14.01,2013-03-26 12:37:00,
2013-03-26 07:40:00,25.6,18.2,30.25,WNW,292,1.0,5.0,73,0.00,,---,0.00,VWS V14.01,2013-03-26 12:40:00,
2013-03-26 07:42:00,25.0,18.2,30.23,NW,313,0.0,0.0,75,0.00,,OVC060,0.00,VWS V14.01,2013-03-26 12:42:00,
2013-03-26 07:45:00,25.7,18.3,30.25,WNW,292,3.0,7.0,73,0.00,,---,0.00,VWS V14.01,2013-03-26 12:45:00,
2013-03-26 07:50:00,25.7,18.3,30.25,West,270,2.0,9.0,73,0.00,,---,0.00,VWS V14.01,2013-03-26 12:50:00,
2013-03-26 07:55:00,25.8,18.4,30.25,West,270,4.0,8.0,73,0.00,,---,0.00,VWS V14.01,2013-03-26 12:55:00,
2013-03-26 07:57:00,25.0,17.9,30.23,NW,313,1.0,4.0,74,0.00,,OVC060,0.00,VWS V14.01,2013-03-26 12:57:00,
2013-03-26 08:00:00,26.0,18.2,30.25,WNW,292,3.0,6.0,72,0.00,,---,0.00,VWS V14.01,2013-03-26 13:00:00,
2013-03-26 08:03:00,25.0,17.9,30.24,WNW,299,0.0,4.0,74,0.00,,OVC060,0.00,VWS V14.01,2013-03-26 13:03:00,
2013-03-26 08:05:00,26.1,18.3,30.25,WNW,292,3.0,6.0,72,0.00,,---,0.00,VWS V14.01,2013-03-26 13:05:00,
2013-03-26 08:10:00,26.3,18.2,30.25,WNW,292,2.0,7.0,71,0.00,,---,0.00,VWS V14.01,2013-03-26 13:10:00,
2013-03-26 08:12:00,25.1,18.0,30.24,NW,305,1.0,5.0,74,0.00,,OVC060,0.00,VWS V14.01,2013-03-26 13:12:00,
2013-03-26 08:15:00,26.4,18.3,30.25,WNW,292,2.0,4.0,71,0.00,,---,0.00,VWS V14.01,2013-03-26 13:15:00,
2013-03-26 08:20:00,26.6,18.5,30.25,WNW,292,1.0,6.0,71,0.00,,---,0.00,VWS V14.01,2013-03-26 13:20:00,
2013-03-26 08:22:00,25.3,18.2,30.24,NW,304,0.0,0.0,74,0.00,,OVC060,0.00,VWS V14.01,2013-03-26 13:22:00,
2013-03-26 08:25:00,26.7,18.6,30.25,NNW,338,0.0,3.0,71,0.00,,---,0.00,VWS V14.01,2013-03-26 13:25:00,
2013-03-26 08:27:00,25.3,18.2,30.24,NW,306,0.0,0.0,74,0.00,,OVC060,0.00,VWS V14.01,2013-03-26 13:27:00,
2013-03-26 08:30:00,26.9,18.8,30.25,NNW,338,0.0,0.0,71,0.00,,---,0.00,VWS V14.01,2013-03-26 13:30:00,
2013-03-26 08:32:00,25.4,18.3,30.25,NW,306,0.0,5.0,74,0.00,,OVC060,0.00,VWS V14.01,2013-03-26 13:32:00,
2013-03-26 08:35:00,27.2,18.7,30.25,WNW,292,1.0,6.0,70,0.00,,---,0.00,VWS V14.01,2013-03-26 13:35:00,
2013-03-26 08:37:00,25.6,18.2,30.25,WNW,296,0.0,0.0,73,0.00,,OVC060,0.00,VWS V14.01,2013-03-26 13:37:00,
2013-03-26 08:40:00,27.3,18.8,30.25,WNW,292,3.0,6.0,70,0.00,,---,0.00,VWS V14.01,2013-03-26 13:40:00,
2013-03-26 08:45:00,27.6,19.1,30.25,WNW,292,3.0,5.0,70,0.00,,---,0.00,VWS V14.01,2013-03-26 13:45:00,
2013-03-26 08:47:00,25.7,18.3,30.25,NW,309,2.0,7.0,73,0.00,,OVC060,0.00,VWS V14.01,2013-03-26 13:47:00,
2013-03-26 08:50:00,27.8,19.0,30.25,WNW,292,1.0,6.0,69,0.00,,---,0.00,VWS V14.01,2013-03-26 13:50:00,
2013-03-26 08:55:00,27.9,18.7,30.25,WNW,292,0.0,0.0,68,0.00,,---,0.00,VWS V14.01,2013-03-26 13:55:00,
2013-03-26 08:57:00,25.8,18.4,30.25,WNW,296,2.0,9.0,73,0.00,,OVC060,0.00,VWS V14.01,2013-03-26 13:57:00,
2013-03-26 09:00:00,28.2,19.0,30.25,WNW,292,1.0,7.0,68,0.00,,---,0.00,VWS V14.01,2013-03-26 14:00:00,
2013-03-26 09:02:00,26.0,18.2,30.25,WNW,289,2.0,6.0,72,0.00,,OVC060,0.00,VWS V14.01,2013-03-26 14:02:00,
2013-03-26 09:05:00,28.4,19.2,30.25,WNW,292,1.0,6.0,68,0.00,,---,0.00,VWS V14.01,2013-03-26 14:05:00,
2013-03-26 09:07:00,26.1,18.3,30.25,NW,321,3.0,6.0,72,0.00,,OVC060,0.00,VWS V14.01,2013-03-26 14:07:00,
2013-03-26 09:10:00,28.7,19.1,30.25,WNW,292,1.0,5.0,67,0.00,,---,0.00,VWS V14.01,2013-03-26 14:10:00,
2013-03-26 09:12:00,26.3,18.2,30.25,NW,315,0.0,6.0,71,0.00,,OVC060,0.00,VWS V14.01,2013-03-26 14:12:00,
2013-03-26 09:15:00,29.0,19.4,30.26,WNW,292,2.0,5.0,67,0.00,,---,0.00,VWS V14.01,2013-03-26 14:15:00,
2013-03-26 09:17:00,26.4,18.3,30.25,WNW,297,0.0,4.0,71,0.00,,OVC060,0.00,VWS V14.01,2013-03-26 14:17:00,
2013-03-26 09:20:00,29.3,19.7,30.26,WNW,292,1.0,4.0,67,0.00,,---,0.00,VWS V14.01,2013-03-26 14:20:00,
2013-03-26 09:22:00,26.6,18.5,30.25,NNW,336,0.0,6.0,71,0.00,,OVC060,0.00,VWS V14.01,2013-03-26 14:22:00,
2013-03-26 09:25:00,29.5,19.6,30.26,WNW,292,0.0,0.0,66,0.00,,---,0.00,VWS V14.01,2013-03-26 14:25:00,
2013-03-26 09:30:00,29.7,19.4,30.25,WNW,292,0.0,0.0,65,0.00,,---,0.00,VWS V14.01,2013-03-26 14:30:00,
2013-03-26 09:32:00,26.9,18.8,30.25,West,279,0.0,0.0,71,0.00,,OVC060,0.00,VWS V14.01,2013-03-26 14:32:00,
2013-03-26 09:35:00,29.8,19.1,30.25,WNW,292,0.0,0.0,64,0.00,,---,0.00,VWS V14.01,2013-03-26 14:35:00,
2013-03-26 09:37:00,27.2,18.7,30.25,WNW,294,0.0,5.0,70,0.00,,OVC060,0.00,VWS V14.01,2013-03-26 14:37:00,
2013-03-26 09:40:00,29.8,19.5,30.25,WNW,292,0.0,0.0,65,0.00,,---,0.00,VWS V14.01,2013-03-26 14:40:00,
2013-03-26 09:45:00,30.3,19.6,30.25,NNW,338,1.0,6.0,64,0.00,,---,0.00,VWS V14.01,2013-03-26 14:45:00,
2013-03-26 09:47:00,27.6,19.1,30.25,WNW,302,2.0,5.0,70,0.00,,OVC060,0.00,VWS V14.01,2013-03-26 14:47:00,
2013-03-26 09:50:00,30.6,19.9,30.25,NW,315,1.0,3.0,64,0.00,,---,0.00,VWS V14.01,2013-03-26 14:50:00,
2013-03-26 09:55:00,30.9,19.4,30.25,NW,315,0.0,0.0,62,0.00,,---,0.00,VWS V14.01,2013-03-26 14:55:00,
2013-03-26 09:57:00,27.9,18.7,30.25,WNW,284,0.0,0.0,68,0.00,,OVC060,0.00,VWS V14.01,2013-03-26 14:57:00,
2013-03-26 10:00:00,31.0,19.9,30.25,NW,315,0.0,0.0,63,0.00,,---,0.00,VWS V14.01,2013-03-26 15:00:00,
2013-03-26 10:02:00,28.2,19.0,30.25,WNW,296,1.0,7.0,68,0.00,,OVC060,0.00,VWS V14.01,2013-03-26 15:02:00,
2013-03-26 10:05:00,31.5,20.4,30.25,NW,315,0.0,0.0,63,0.00,,---,0.00,VWS V14.01,2013-03-26 15:05:00,
2013-03-26 10:10:00,31.9,20.4,30.25,NW,315,0.0,0.0,62,0.00,,---,0.00,VWS V14.01,2013-03-26 15:10:00,
2013-03-26 10:12:00,28.7,19.1,30.25,WNW,297,3.0,5.0,67,0.00,,OVC060,0.00,VWS V14.01,2013-03-26 15:12:00,
2013-03-26 10:15:00,32.4,20.9,30.25,NW,315,1.0,6.0,62,0.00,,---,0.00,VWS V14.01,2013-03-26 15:15:00,
2013-03-26 10:17:00,29.0,19.4,30.26,WNW,296,3.0,5.0,67,0.00,,OVC060,0.00,VWS V14.01,2013-03-26 15:17:00,
2013-03-26 10:20:00,32.7,20.4,30.25,NW,315,0.0,3.0,60,0.00,,---,0.00,VWS V14.01,2013-03-26 15:20:00,
2013-03-26 10:22:00,29.3,19.7,30.26,WNW,296,0.0,3.0,67,0.00,,OVC060,0.00,VWS V14.01,2013-03-26 15:22:00,
2013-03-26 10:25:00,32.9,20.5,30.25,NW,315,0.0,0.0,60,0.00,,---,0.00,VWS V14.01,2013-03-26 15:25:00,
2013-03-26 10:27:00,29.5,19.6,30.26,NW,311,0.0,0.0,66,0.00,,OVC060,0.00,VWS V14.01,2013-03-26 15:27:00,
2013-03-26 10:30:00,33.4,20.6,30.25,West,270,1.0,6.0,59,0.00,,---,0.00,VWS V14.01,2013-03-26 15:30:00,
2013-03-26 10:32:00,29.7,19.4,30.25,WNW,302,0.0,0.0,65,0.00,,OVC060,0.00,VWS V14.01,2013-03-26 15:32:00,
2013-03-26 10:35:00,33.7,20.9,30.25,WNW,292,0.0,6.0,59,0.00,,---,0.00,VWS V14.01,2013-03-26 15:35:00,
2013-03-26 10:37:00,29.8,19.1,30.25,North,355,0.0,0.0,64,0.00,,OVC060,0.00,VWS V14.01,2013-03-26 15:37:00,
2013-03-26 10:40:00,34.1,20.9,30.25,West,270,0.0,3.0,58,0.00,,---,0.00,VWS V14.01,2013-03-26 15:40:00,
2013-03-26 10:42:00,30.0,19.7,30.25,NNW,348,0.0,0.0,65,0.00,,OVC060,0.00,VWS V14.01,2013-03-26 15:42:00,
2013-03-26 10:45:00,34.1,20.5,30.25,West,270,1.0,6.0,57,0.00,,---,0.00,VWS V14.01,2013-03-26 15:45:00,
2013-03-26 10:47:00,30.3,19.6,30.25,NNW,328,1.0,6.0,64,0.00,,OVC060,0.00,VWS V14.01,2013-03-26 15:47:00,
2013-03-26 10:50:00,34.0,20.4,30.25,West,270,0.0,0.0,57,0.00,,---,0.00,VWS V14.01,2013-03-26 15:50:00,
2013-03-26 10:52:00,30.6,19.9,30.25,WNW,296,0.0,3.0,64,0.00,,OVC060,0.00,VWS V14.01,2013-03-26 15:52:00,
2013-03-26 10:55:00,34.3,21.1,30.25,West,270,0.0,0.0,58,0.00,,---,0.00,VWS V14.01,2013-03-26 15:55:00,
2013-03-26 11:00:00,34.7,20.6,30.25,West,270,0.0,0.0,56,0.00,,---,0.00,VWS V14.01,2013-03-26 16:00:00,
2013-03-26 11:02:00,31.0,19.9,30.25,NW,325,0.0,0.0,63,0.00,,OVC065,0.00,VWS V14.01,2013-03-26 16:02:00,
2013-03-26 11:05:00,34.9,21.2,30.25,West,270,1.0,5.0,57,0.00,,---,0.00,VWS V14.01,2013-03-26 16:05:00,
2013-03-26 11:07:00,31.5,20.4,30.25,WNW,289,0.0,0.0,63,0.00,,OVC065,0.00,VWS V14.01,2013-03-26 16:07:00,
2013-03-26 11:10:00,35.0,20.9,30.25,WNW,292,2.0,7.0,56,0.00,,---,0.00,VWS V14.01,2013-03-26 16:10:00,
2013-03-26 11:15:00,35.0,20.9,30.25,WNW,292,1.0,6.0,56,0.00,,---,0.00,VWS V14.01,2013-03-26 16:15:00,
2013-03-26 11:17:00,32.4,20.9,30.25,NW,304,0.0,6.0,62,0.00,,OVC065,0.00,VWS V14.01,2013-03-26 16:17:00,
2013-03-26 11:20:00,35.3,21.2,30.25,WNW,292,1.0,5.0,56,0.00,,---,0.00,VWS V14.01,2013-03-26 16:20:00,
2013-03-26 11:25:00,35.6,21.5,30.25,WNW,292,0.0,6.0,56,0.00,,---,0.00,VWS V14.01,2013-03-26 16:25:00,
2013-03-26 11:27:00,32.9,20.5,30.25,WNW,290,0.0,0.0,60,0.00,,OVC065,0.00,VWS V14.01,2013-03-26 16:27:00,
2013-03-26 11:30:00,36.2,21.6,30.24,WNW,292,0.0,0.0,55,0.00,,---,0.00,VWS V14.01,2013-03-26 16:30:00,
2013-03-26 11:32:00,33.4,20.6,30.25,West,277,5.0,6.0,59,0.00,,OVC065,0.00,VWS V14.01,2013-03-26 16:32:00,
2013-03-26 11:35:00,37.0,21.9,30.24,SW,225,0.0,2.0,54,0.00,,---,0.00,VWS V14.01,2013-03-26 16:35:00,
2013-03-26 11:37:00,33.7,20.9,30.25,WSW,242,0.0,6.0,59,0.00,,OVC065,0.00,VWS V14.01,2013-03-26 16:37:00,
2013-03-26 11:40:00,37.2,21.7,30.24,West,270,1.0,5.0,53,0.00,,---,0.00,VWS V14.01,2013-03-26 16:40:00,
2013-03-26 11:42:00,34.1,20.9,30.25,WNW,292,0.0,3.0,58,0.00,,OVC065,0.00,VWS V14.01,2013-03-26 16:42:00,
2013-03-26 11:45:00,37.6,21.6,30.24,NW,315,3.0,7.0,52,0.00,,---,0.00,VWS V14.01,2013-03-26 16:45:00,
2013-03-26 11:47:00,34.1,20.5,30.25,WNW,295,0.0,6.0,57,0.00,,OVC065,0.00,VWS V14.01,2013-03-26 16:47:00,
2013-03-26 11:50:00,37.3,21.8,30.24,NW,315,4.0,7.0,53,0.00,,---,0.00,VWS V14.01,2013-03-26 16:50:00,
2013-03-26 11:55:00,37.5,21.9,30.24,West,270,4.0,7.0,53,0.00,,---,0.00,VWS V14.01,2013-03-26 16:55:00,
2013-03-26 11:57:00,34.3,21.1,30.25,WNW,287,0.0,0.0,58,0.00,,OVC065,0.00,VWS V14.01,2013-03-26 16:57:00,
2013-03-26 12:00:00,38.2,21.7,30.24,WNW,292,1.0,8.0,51,0.00,,---,0.00,VWS V14.01,2013-03-26 17:00:00,
2013-03-26 12:02:00,34.7,20.6,30.25,NW,317,0.0,0.0,56,0.00,,OVC065,0.00,VWS V14.01,2013-03-26 17:02:00,
2013-03-26 12:05:00,38.2,21.7,30.24,NNW,338,1.0,7.0,51,0.00,,---,0.00,VWS V14.01,2013-03-26 17:05:00,
2013-03-26 12:07:00,34.9,21.2,30.25,WNW,283,0.0,5.0,57,0.00,,OVC065,0.00,VWS V14.01,2013-03-26 17:07:00,
2013-03-26 12:10:00,38.3,21.8,30.24,WNW,292,4.0,7.0,51,0.00,,---,0.00,VWS V14.01,2013-03-26 17:10:00,
2013-03-26 12:12:00,35.0,20.9,30.25,WNW,290,6.0,6.0,56,0.00,,OVC065,0.00,VWS V14.01,2013-03-26 17:12:00,
2013-03-26 12:15:00,38.0,21.0,30.24,NNW,338,2.0,6.0,50,0.00,,---,0.00,VWS V14.01,2013-03-26 17:15:00,
2013-03-26 12:17:00,35.0,20.9,30.25,WNW,290,0.0,6.0,56,0.00,,OVC065,0.00,VWS V14.01,2013-03-26 17:17:00,
2013-03-26 12:20:00,38.0,21.5,30.24,WNW,292,4.0,10.0,51,0.00,,---,0.00,VWS V14.01,2013-03-26 17:20:00,
2013-03-26 12:22:00,35.3,21.2,30.25,WNW,302,0.0,5.0,56,0.00,,OVC065,0.00,VWS V14.01,2013-03-26 17:22:00,
2013-03-26 12:25:00,38.2,21.7,30.24,West,270,5.0,10.0,51,0.00,,---,0.00,VWS V14.01,2013-03-26 17:25:00,
2013-03-26 12:27:00,35.6,21.5,30.25,WNW,292,0.0,6.0,56,0.00,,OVC065,0.00,VWS V14.01,2013-03-26 17:27:00,
2013-03-26 12:30:00,38.3,21.8,30.24,WNW,292,3.0,9.0,51,0.00,,---,0.00,VWS V14.01,2013-03-26 17:30:00,
2013-03-26 12:32:00,36.2,21.6,30.24,NW,307,0.0,0.0,55,0.00,,OVC065,0.00,VWS V14.01,2013-03-26 17:32:00,
2013-03-26 12:35:00,38.8,21.8,30.24,WNW,292,3.0,7.0,50,0.00,,---,0.00,VWS V14.01,2013-03-26 17:35:00,
2013-03-26 12:37:00,37.0,21.9,30.24,WNW,282,1.0,2.0,54,0.00,,OVC065,0.00,VWS V14.01,2013-03-26 17:37:00,
2013-03-26 12:40:00,38.9,21.9,30.24,WNW,292,3.0,9.0,50,0.00,,---,0.00,VWS V14.01,2013-03-26 17:40:00,
2013-03-26 12:42:00,37.2,21.7,30.24,West,281,0.0,5.0,53,0.00,,OVC065,0.00,VWS V14.01,2013-03-26 17:42:00,
2013-03-26 12:45:00,38.6,21.6,30.23,NW,315,4.0,10.0,50,0.00,,---,0.00,VWS V14.01,2013-03-26 17:45:00,
2013-03-26 12:47:00,37.6,21.6,30.24,NW,322,0.0,7.0,52,0.00,,OVC065,0.00,VWS V14.01,2013-03-26 17:47:00,
2013-03-26 12:50:00,39.1,22.5,30.23,West,270,4.0,11.0,51,0.00,,---,0.00,VWS V14.01,2013-03-26 17:50:00,
2013-03-26 12:52:00,37.3,21.8,30.24,NNW,327,5.0,7.0,53,0.00,,OVC065,0.00,VWS V14.01,2013-03-26 17:52:00,
2013-03-26 12:55:00,39.2,22.1,30.23,West,270,4.0,11.0,50,0.00,,---,0.00,VWS V14.01,2013-03-26 17:55:00,
2013-03-26 13:00:00,39.6,22.5,30.23,West,270,4.0,11.0,50,0.00,,---,0.00,VWS V14.01,2013-03-26 18:00:00,
2013-03-26 13:02:00,38.2,21.7,30.24,NNW,338,0.0,8.0,51,0.00,,OVC065,0.00,VWS V14.01,2013-03-26 18:02:00,
2013-03-26 13:05:00,39.3,21.3,30.23,NW,315,2.0,7.0,48,0.00,,---,0.00,VWS V14.01,2013-03-26 18:05:00,
2013-03-26 13:07:00,38.2,21.7,30.24,WNW,292,3.0,7.0,51,0.00,,OVC065,0.00,VWS V14.01,2013-03-26 18:07:00,
2013-03-26 13:10:00,39.2,22.1,30.23,West,270,3.0,10.0,50,0.00,,---,0.00,VWS V14.01,2013-03-26 18:10:00,
2013-03-26 13:15:00,39.3,22.2,30.23,West,270,4.0,11.0,50,0.00,,---,0.00,VWS V14.01,2013-03-26 18:15:00,
2013-03-26 13:17:00,38.0,21.0,30.24,NW,323,2.0,6.0,50,0.00,,OVC065,0.00,VWS V14.01,2013-03-26 18:17:00,
2013-03-26 13:20:00,38.9,21.4,30.23,NNW,338,1.0,7.0,49,0.00,,---,0.00,VWS V14.01,2013-03-26 18:20:00,
2013-03-26 13:25:00,39.1,21.1,30.23,WNW,292,1.0,9.0,48,0.00,,---,0.00,VWS V14.01,2013-03-26 18:25:00,
2013-03-26 13:27:00,38.2,21.7,30.24,NNW,340,0.0,10.0,51,0.00,,OVC065,0.00,VWS V14.01,2013-03-26 18:27:00,
2013-03-26 13:30:00,39.2,21.2,30.23,WNW,292,1.0,9.0,48,0.00,,---,0.00,VWS V14.01,2013-03-26 18:30:00,
2013-03-26 13:32:00,38.3,21.8,30.24,WNW,300,5.0,9.0,51,0.00,,OVC065,0.00,VWS V14.01,2013-03-26 18:32:00,
2013-03-26 13:35:00,39.5,21.5,30.23,NNW,338,2.0,7.0,48,0.00,,---,0.00,VWS V14.01,2013-03-26 18:35:00,
2013-03-26 13:37:00,38.8,21.8,30.24,WNW,285,4.0,7.0,50,0.00,,OVC065,0.00,VWS V14.01,2013-03-26 18:37:00,
2013-03-26 13:40:00,39.6,21.0,30.23,NW,315,2.0,8.0,47,0.00,,---,0.00,VWS V14.01,2013-03-26 18:40:00,
2013-03-26 13:42:00,38.9,21.9,30.24,NW,304,1.0,9.0,50,0.00,,OVC065,0.00,VWS V14.01,2013-03-26 18:42:00,
2013-03-26 13:45:00,39.8,21.7,30.22,West,270,2.0,11.0,48,0.00,,---,0.00,VWS V14.01,2013-03-26 18:45:00,
2013-03-26 13:47:00,38.6,21.6,30.23,West,277,0.0,10.0,50,0.00,,OVC065,0.00,VWS V14.01,2013-03-26 18:47:00,
2013-03-26 13:50:00,39.8,21.2,30.22,WNW,292,4.0,10.0,47,0.00,,---,0.00,VWS V14.01,2013-03-26 18:50:00,
2013-03-26 13:52:00,39.1,22.5,30.23,WNW,293,2.0,11.0,51,0.00,,OVC065,0.00,VWS V14.01,2013-03-26 18:52:00,
2013-03-26 13:55:00,39.3,20.8,30.22,North,0,1.0,5.0,47,0.00,,---,0.00,VWS V14.01,2013-03-26 18:55:00,
2013-03-26 13:57:00,39.2,22.1,30.23,West,261,6.0,11.0,50,0.00,,OVC065,0.00,VWS V14.01,2013-03-26 18:57:00,
2013-03-26 14:00:00,39.3,21.3,30.22,WNW,292,2.0,6.0,48,0.00,,---,0.00,VWS V14.01,2013-03-26 19:00:00,
2013-03-26 14:03:00,39.6,22.5,30.23,West,270,0.0,11.0,50,0.00,,OVC065,0.00,VWS V14.01,2013-03-26 19:03:00,
2013-03-26 14:05:00,39.5,21.0,30.22,West,270,4.0,10.0,47,0.00,,---,0.00,VWS V14.01,2013-03-26 19:05:00,
2013-03-26 14:10:00,39.3,20.8,30.22,WNW,292,5.0,12.0,47,0.00,,---,0.00,VWS V14.01,2013-03-26 19:10:00,
2013-03-26 14:12:00,39.2,22.1,30.23,West,273,7.0,10.0,50,0.00,,OVC065,0.00,VWS V14.01,2013-03-26 19:12:00,
2013-03-26 14:15:00,39.2,20.2,30.23,WNW,292,3.0,9.0,46,0.00,,---,0.00,VWS V14.01,2013-03-26 19:15:00,
2013-03-26 14:18:00,39.3,22.2,30.23,NW,318,0.0,10.0,50,0.00,,OVC065,0.00,VWS V14.01,2013-03-26 19:18:00,
2013-03-26 14:20:00,39.8,19.7,30.23,West,270,1.0,7.0,44,0.00,,---,0.00,VWS V14.01,2013-03-26 19:20:00,
2013-03-26 14:25:00,39.9,18.7,30.23,West,270,5.0,10.0,42,0.00,,---,0.00,VWS V14.01,2013-03-26 19:25:00,
2013-03-26 14:27:00,39.1,21.1,30.23,WNW,298,9.0,9.0,48,0.00,,OVC065,0.00,VWS V14.01,2013-03-26 19:27:00,
2013-03-26 14:30:00,40.1,19.4,30.22,WNW,292,0.0,6.0,43,0.00,,---,0.00,VWS V14.01,2013-03-26 19:30:00,
2013-03-26 14:32:00,39.2,21.2,30.23,NNW,342,0.0,9.0,48,0.00,,OVC065,0.00,VWS V14.01,2013-03-26 19:32:00,
2013-03-26 14:35:00,39.6,17.3,30.22,NNW,338,2.0,8.0,40,0.00,,---,0.00,VWS V14.01,2013-03-26 19:35:00,
2013-03-26 14:37:00,39.5,21.5,30.23,NW,305,5.0,7.0,48,0.00,,OVC065,0.00,VWS V14.01,2013-03-26 19:37:00,
2013-03-26 14:40:00,39.1,18.0,30.22,NW,315,2.0,6.0,42,0.00,,---,0.00,VWS V14.01,2013-03-26 19:40:00,
2013-03-26 14:42:00,39.6,21.0,30.23,NNW,345,0.0,8.0,47,0.00,,OVC065,0.00,VWS V14.01,2013-03-26 19:42:00,
2013-03-26 14:45:00,38.9,18.9,30.22,NW,315,1.0,5.0,44,0.00,,---,0.00,VWS V14.01,2013-03-26 19:45:00,
2013-03-26 14:47:00,39.8,21.7,30.22,NNW,330,5.0,11.0,48,0.00,,OVC065,0.00,VWS V14.01,2013-03-26 19:47:00,
2013-03-26 14:50:00,38.9,18.3,30.22,West,270,1.0,6.0,43,0.00,,---,0.00,VWS V14.01,2013-03-26 19:50:00,
2013-03-26 14:52:00,39.8,21.2,30.22,NW,316,0.0,10.0,47,0.00,,OVC065,0.00,VWS V14.01,2013-03-26 19:52:00,
2013-03-26 14:55:00,38.8,18.2,30.22,NW,315,1.0,6.0,43,0.00,,---,0.00,VWS V14.01,2013-03-26 19:55:00,
2013-03-26 14:57:00,39.3,20.8,30.22,NW,324,0.0,5.0,47,0.00,,OVC065,0.00,VWS V14.01,2013-03-26 19:57:00,
2013-03-26 15:00:00,38.9,18.3,30.22,WNW,292,1.0,6.0,43,0.00,,---,0.00,VWS V14.01,2013-03-26 20:00:00,
2013-03-26 15:02:00,39.3,21.3,30.22,WNW,284,2.0,6.0,48,0.00,,BKN060,0.00,VWS V14.01,2013-03-26 20:02:00,
2013-03-26 15:05:00,38.8,18.2,30.22,WNW,292,2.0,8.0,43,0.00,,---,0.00,VWS V14.01,2013-03-26 20:05:00,
2013-03-26 15:07:00,39.5,21.0,30.22,West,273,0.0,10.0,47,0.00,,BKN060,0.00,VWS V14.01,2013-03-26 20:07:00,
2013-03-26 15:10:00,38.8,18.2,30.22,WNW,292,0.0,0.0,43,0.00,,---,0.00,VWS V14.01,2013-03-26 20:10:00,
2013-03-26 15:13:00,39.3,20.8,30.22,WNW,298,6.0,12.0,47,0.00,,BKN060,0.00,VWS V14.01,2013-03-26 20:13:00,
2013-03-26 15:15:00,38.6,18.0,30.22,North,0,0.0,5.0,43,0.00,,---,0.00,VWS V14.01,2013-03-26 20:15:00,
2013-03-26 15:20:00,38.6,18.0,30.22,NNW,338,0.0,5.0,43,0.00,,---,0.00,VWS V14.01,2013-03-26 20:20:00,
2013-03-26 15:22:00,39.8,19.7,30.23,WNW,291,7.0,7.0,44,0.00,,BKN060,0.00,VWS V14.01,2013-03-26 20:22:00,
2013-03-26 15:25:00,38.8,17.7,30.22,NNW,338,0.0,0.0,42,0.00,,---,0.00,VWS V14.01,2013-03-26 20:25:00,
2013-03-26 15:30:00,39.2,18.0,30.21,NNW,338,0.0,3.0,42,0.00,,---,0.00,VWS V14.01,2013-03-26 20:30:00,
2013-03-26 15:32:00,40.1,19.4,30.22,West,281,5.0,6.0,43,0.00,,BKN060,0.00,VWS V14.01,2013-03-26 20:32:00,
2013-03-26 15:35:00,39.5,18.9,30.21,West,270,2.0,9.0,43,0.00,,---,0.00,VWS V14.01,2013-03-26 20:35:00,
2013-03-26 15:37:00,39.6,17.3,30.22,North,5,2.0,8.0,40,0.00,,BKN060,0.00,VWS V14.01,2013-03-26 20:37:00,
2013-03-26 15:40:00,39.3,18.7,30.21,WSW,248,2.0,10.0,43,0.00,,---,0.00,VWS V14.01,2013-03-26 20:40:00,
2013-03-26 15:42:00,39.1,18.0,30.22,NW,325,1.0,6.0,42,0.00,,BKN060,0.00,VWS V14.01,2013-03-26 20:42:00,
2013-03-26 15:45:00,39.2,19.1,30.21,WNW,292,2.0,10.0,44,0.00,,---,0.00,VWS V14.01,2013-03-26 20:45:00,
2013-03-26 15:47:00,38.9,18.9,30.22,NW,312,0.0,5.0,44,0.00,,BKN060,0.00,VWS V14.01,2013-03-26 20:47:00,
2013-03-26 15:50:00,38.9,18.9,30.21,WNW,292,0.0,0.0,44,0.00,,---,0.00,VWS V14.01,2013-03-26 20:50:00,
2013-03-26 15:52:00,38.9,18.3,30.22,West,269,5.0,6.0,43,0.00,,BKN060,0.00,VWS V14.01,2013-03-26 20:52:00,
2013-03-26 15:55:00,38.9,19.4,30.21,WNW,292,1.0,9.0,45,0.00,,---,0.00,VWS V14.01,2013-03-26 20:55:00,
2013-03-26 15:57:00,38.8,18.2,30.22,WNW,296,0.0,6.0,43,0.00,,BKN060,0.00,VWS V14.01,2013-03-26 20:57:00,
2013-03-26 16:00:00,38.8,19.8,30.21,WNW,292,1.0,7.0,46,0.00,,---,0.00,VWS V14.01,2013-03-26 21:00:00,
2013-03-26 16:02:00,38.9,18.3,30.22,NW,318,4.0,5.0,43,0.00,,OVC055,0.00,VWS V14.01,2013-03-26 21:02:00,
2013-03-26 16:05:00,38.5,20.0,30.21,WNW,292,4.0,11.0,47,0.00,,---,0.00,VWS V14.01,2013-03-26 21:05:00,
2013-03-26 16:07:00,38.8,18.2,30.22,NNW,342,0.0,8.0,43,0.00,,OVC055,0.00,VWS V14.01,2013-03-26 21:07:00,
2013-03-26 16:10:00,38.3,21.3,30.21,WNW,292,4.0,12.0,50,0.00,,---,0.00,VWS V14.01,2013-03-26 21:10:00,
2013-03-26 16:12:00,38.8,18.2,30.22,NNW,331,0.0,0.0,43,0.00,,OVC055,0.00,VWS V14.01,2013-03-26 21:12:00,
2013-03-26 16:15:00,38.0,21.0,30.22,WNW,292,2.0,10.0,50,0.00,,---,0.00,VWS V14.01,2013-03-26 21:15:00,
2013-03-26 16:17:00,38.6,18.0,30.22,WNW,292,0.0,5.0,43,0.00,,OVC055,0.00,VWS V14.01,2013-03-26 21:17:00,
2013-03-26 16:20:00,37.9,20.5,30.22,WNW,292,6.0,11.0,49,0.00,,---,0.00,VWS V14.01,2013-03-26 21:20:00,
2013-03-26 16:25:00,37.8,20.4,30.22,WNW,292,5.0,11.0,49,0.00,,---,0.00,VWS V14.01,2013-03-26 21:25:00,
2013-03-26 16:27:00,38.8,17.7,30.22,NW,313,0.0,0.0,42,0.00,,OVC055,0.00,VWS V14.01,2013-03-26 21:27:00,
2013-03-26 16:30:00,37.6,19.7,30.22,West,270,4.0,10.0,48,0.00,,---,0.00,VWS V14.01,2013-03-26 21:30:00,
2013-03-26 16:32:00,39.2,18.0,30.21,NW,311,0.0,3.0,42,0.00,,OVC055,0.00,VWS V14.01,2013-03-26 21:32:00,
2013-03-26 16:35:00,37.6,20.2,30.22,WNW,292,3.0,8.0,49,0.00,,---,0.00,VWS V14.01,2013-03-26 21:35:00,
2013-03-26 16:40:00,37.5,19.6,30.22,WNW,292,1.0,10.0,48,0.00,,---,0.00,VWS V14.01,2013-03-26 21:40:00,
2013-03-26 16:42:00,39.3,18.7,30.21,WSW,255,2.0,10.0,43,0.00,,OVC055,0.00,VWS V14.01,2013-03-26 21:42:00,
2013-03-26 16:45:00,37.5,19.6,30.22,WNW,292,3.0,10.0,48,0.00,,---,0.00,VWS V14.01,2013-03-26 21:45:00,
2013-03-26 16:47:00,39.2,19.1,30.21,WNW,296,0.0,10.0,44,0.00,,OVC055,0.00,VWS V14.01,2013-03-26 21:47:00,
2013-03-26 16:50:00,37.3,20.4,30.22,West,270,1.0,6.0,50,0.00,,---,0.00,VWS V14.01,2013-03-26 21:50:00,
2013-03-26 16:52:00,38.9,18.9,30.21,WSW,257,0.0,0.0,44,0.00,,OVC055,0.00,VWS V14.01,2013-03-26 21:52:00,
2013-03-26 16:55:00,37.3,20.4,30.22,WNW,292,1.0,7.0,50,0.00,,---,0.00,VWS V14.01,2013-03-26 21:55:00,
2013-03-26 16:57:00,38.9,19.4,30.21,WNW,290,7.0,9.0,45,0.00,,OVC055,0.00,VWS V14.01,2013-03-26 21:57:00,
2013-03-26 17:00:00,37.5,20.1,30.22,WNW,292,2.0,7.0,49,0.00,,---,0.00,VWS V14.01,2013-03-26 22:00:00,
2013-03-26 17:05:00,37.8,19.9,30.22,WNW,292,3.0,10.0,48,0.00,,OVC055,0.00,VWS V14.01,2013-03-26 22:05:00,
2013-03-26 17:07:00,38.5,20.0,30.21,WNW,288,11.0,11.0,47,0.00,,OVC060,0.00,VWS V14.01,2013-03-26 22:07:00,
2013-03-26 17:10:00,37.9,20.0,30.22,West,270,1.0,7.0,48,0.00,,---,0.00,VWS V14.01,2013-03-26 22:10:00,
2013-03-26 17:12:00,38.3,21.3,30.21,NW,325,10.0,11.0,50,0.00,,OVC060,0.00,VWS V14.01,2013-03-26 22:12:00,
2013-03-26 17:15:00,38.0,19.6,30.22,West,262,0.0,9.0,47,0.00,,OVC055,0.00,VWS V14.01,2013-03-26 22:15:00,
2013-03-26 17:17:00,38.0,21.0,30.22,West,278,0.0,10.0,50,0.00,,OVC060,0.00,VWS V14.01,2013-03-26 22:17:00,
2013-03-26 17:20:00,38.2,19.8,30.22,West,280,5.0,10.0,47,0.00,,OVC055,0.00,VWS V14.01,2013-03-26 22:20:00,
2013-03-26 17:25:00,38.0,20.1,30.22,WNW,292,3.0,10.0,48,0.00,,---,0.00,VWS V14.01,2013-03-26 22:25:00,
2013-03-26 17:27:00,37.8,20.4,30.22,NW,324,4.0,11.0,49,0.00,,OVC060,0.00,VWS V14.01,2013-03-26 22:27:00,
2013-03-26 17:30:00,38.0,20.5,30.22,West,270,5.0,10.0,49,0.00,,---,0.00,VWS V14.01,2013-03-26 22:30:00,
2013-03-26 17:32:00,37.8,19.9,30.22,WNW,301,1.0,10.0,48,0.00,,OVC060,0.00,VWS V14.01,2013-03-26 22:32:00,
2013-03-26 17:35:00,37.8,20.4,30.22,West,270,2.0,9.0,49,0.00,,---,0.00,VWS V14.01,2013-03-26 22:35:00,
2013-03-26 17:37:00,37.6,20.2,30.22,WNW,301,0.0,8.0,49,0.00,,OVC060,0.00,VWS V14.01,2013-03-26 22:37:00,
2013-03-26 17:40:00,37.5,21.0,30.22,WNW,292,1.0,7.0,51,0.00,,---,0.00,VWS V14.01,2013-03-26 22:40:00,
2013-03-26 17:45:00,37.0,20.6,30.23,WNW,292,3.0,9.0,51,0.00,,---,0.00,VWS V14.01,2013-03-26 22:45:00,
2013-03-26 17:47:00,37.5,19.6,30.22,WNW,282,6.0,10.0,48,0.00,,OVC060,0.00,VWS V14.01,2013-03-26 22:47:00,
2013-03-26 17:50:00,36.8,20.4,30.23,West,270,0.0,7.0,51,0.00,,---,0.00,VWS V14.01,2013-03-26 22:50:00,
2013-03-26 17:52:00,37.3,20.4,30.22,WNW,299,0.0,6.0,50,0.00,,OVC060,0.00,VWS V14.01,2013-03-26 22:52:00,
2013-03-26 17:55:00,36.5,20.1,30.23,WNW,292,1.0,6.0,51,0.00,,---,0.00,VWS V14.01,2013-03-26 22:55:00,
2013-03-26 17:57:00,37.3,20.4,30.22,West,277,6.0,7.0,50,0.00,,OVC060,0.00,VWS V14.01,2013-03-26 22:57:00,
2013-03-26 18:00:00,36.2,20.3,30.23,WNW,292,0.0,0.0,52,0.00,,---,0.00,VWS V14.01,2013-03-26 23:00:00,
2013-03-26 18:02:00,37.5,20.1,30.22,WNW,298,1.0,7.0,49,0.00,,OVC055,0.00,VWS V14.01,2013-03-26 23:02:00,
2013-03-26 18:05:00,36.0,20.5,30.23,West,281,0.0,2.0,53,0.00,,BKN060,0.00,VWS V14.01,2013-03-26 23:05:00,
2013-03-26 18:10:00,35.9,20.5,30.23,WNW,286,0.0,6.0,53,0.00,,BKN060,0.00,VWS V14.01,2013-03-26 23:10:00,
2013-03-26 18:13:00,37.9,20.0,30.22,WNW,287,4.0,4.0,48,0.00,,OVC055,0.00,VWS V14.01,2013-03-26 23:13:00,
2013-03-26 18:15:00,35.6,20.2,30.23,West,270,0.0,3.0,53,0.00,,---,0.00,VWS V14.01,2013-03-26 23:15:00,
2013-03-26 18:20:00,35.5,20.5,30.23,West,270,0.0,1.0,54,0.00,,---,0.00,VWS V14.01,2013-03-26 23:20:00,
2013-03-26 18:25:00,35.3,20.3,30.23,West,270,0.0,0.0,54,0.00,,---,0.00,VWS V14.01,2013-03-26 23:25:00,
2013-03-26 18:27:00,38.0,20.1,30.22,West,264,7.0,10.0,48,0.00,,OVC055,0.00,VWS V14.01,2013-03-26 23:27:00,
2013-03-26 18:30:00,35.3,20.3,30.23,West,270,0.0,0.0,54,0.00,,---,0.00,VWS V14.01,2013-03-26 23:30:00,
2013-03-26 18:35:00,35.2,20.7,30.23,West,270,0.0,0.0,55,0.00,,---,0.00,VWS V14.01,2013-03-26 23:35:00,
2013-03-26 18:37:00,37.8,20.4,30.22,WNW,293,0.0,9.0,49,0.00,,OVC055,0.00,VWS V14.01,2013-03-26 23:37:00,
2013-03-26 18:40:00,35.0,20.5,30.23,West,270,0.0,0.0,55,0.00,,---,0.00,VWS V14.01,2013-03-26 23:40:00,
2013-03-26 18:42:00,37.5,21.0,30.22,WNW,290,0.0,7.0,51,0.00,,OVC055,0.00,VWS V14.01,2013-03-26 23:42:00,
2013-03-26 18:45:00,34.9,20.8,30.23,West,274,0.0,0.0,56,0.00,,BKN060,0.00,VWS V14.01,2013-03-26 23:45:00,
2013-03-26 18:47:00,37.0,20.6,30.23,West,277,0.0,9.0,51,0.00,,OVC055,0.00,VWS V14.01,2013-03-26 23:47:00,
2013-03-26 18:50:00,34.9,20.8,30.23,West,270,0.0,0.0,56,0.00,,---,0.00,VWS V14.01,2013-03-26 23:50:00,
2013-03-26 18:53:00,36.8,20.4,30.23,WNW,290,0.0,7.0,51,0.00,,OVC055,0.00,VWS V14.01,2013-03-26 23:53:00,
2013-03-26 18:55:00,34.6,21.0,30.23,West,270,0.0,0.0,57,0.00,,---,0.00,VWS V14.01,2013-03-26 23:55:00,
2013-03-26 19:00:00,34.4,20.8,30.23,West,274,0.0,0.0,57,0.00,,BKN060,0.00,VWS V14.01,2013-03-27 00:00:00,
2013-03-26 19:02:00,36.2,20.3,30.23,WNW,284,0.0,0.0,52,0.00,,BKN060,0.00,VWS V14.01,2013-03-27 00:02:00,
2013-03-26 19:05:00,34.1,20.5,30.23,West,270,0.0,0.0,57,0.00,,---,0.00,VWS V14.01,2013-03-27 00:05:00,
2013-03-26 19:10:00,34.0,20.4,30.23,West,270,0.0,0.0,57,0.00,,---,0.00,VWS V14.01,2013-03-27 00:10:00,
2013-03-26 19:15:00,33.8,20.6,30.23,West,270,0.0,6.0,58,0.00,,---,0.00,VWS V14.01,2013-03-27 00:15:00,
2013-03-26 19:17:00,35.6,20.2,30.23,West,270,0.0,3.0,53,0.00,,BKN060,0.00,VWS V14.01,2013-03-27 00:17:00,
2013-03-26 19:20:00,33.5,20.3,30.23,WNW,292,0.0,5.0,58,0.00,,---,0.00,VWS V14.01,2013-03-27 00:20:00,
2013-03-26 19:22:00,35.5,20.5,30.23,West,272,0.0,1.0,54,0.00,,BKN060,0.00,VWS V14.01,2013-03-27 00:22:00,
2013-03-26 19:25:00,33.4,19.8,30.23,West,270,1.0,6.0,57,0.00,,---,0.00,VWS V14.01,2013-03-27 00:25:00,
2013-03-26 19:27:00,35.3,20.3,30.23,West,274,0.0,0.0,54,0.00,,BKN060,0.00,VWS V14.01,2013-03-27 00:27:00,
2013-03-26 19:30:00,33.2,20.0,30.24,West,270,0.0,0.0,58,0.00,,---,0.00,VWS V14.01,2013-03-27 00:30:00,
2013-03-26 19:32:00,35.3,20.3,30.23,West,274,0.0,0.0,54,0.00,,BKN060,0.00,VWS V14.01,2013-03-27 00:32:00,
2013-03-26 19:35:00,32.9,19.8,30.24,West,270,0.0,0.0,58,0.00,,---,0.00,VWS V14.01,2013-03-27 00:35:00,
2013-03-26 19:37:00,35.2,20.7,30.23,West,274,0.0,0.0,55,0.00,,BKN060,0.00,VWS V14.01,2013-03-27 00:37:00,
2013-03-26 19:40:00,32.8,19.7,30.24,West,277,0.0,0.0,58,0.00,,BKN060,0.00,VWS V14.01,2013-03-27 00:40:00,
2013-03-26 19:42:00,35.0,20.5,30.23,West,274,0.0,0.0,55,0.00,,BKN060,0.00,VWS V14.01,2013-03-27 00:42:00,
2013-03-26 19:45:00,32.5,19.8,30.24,West,270,0.0,0.0,59,0.00,,---,0.00,VWS V14.01,2013-03-27 00:45:00,
2013-03-26 19:50:00,32.4,19.7,30.24,West,270,0.0,0.0,59,0.00,,---,0.00,VWS V14.01,2013-03-27 00:50:00,
2013-03-26 19:52:00,34.9,20.8,30.23,West,274,0.0,0.0,56,0.00,,BKN060,0.00,VWS V14.01,2013-03-27 00:52:00,
2013-03-26 19:55:00,32.1,19.4,30.24,West,277,0.0,0.0,59,0.00,,BKN060,0.00,VWS V14.01,2013-03-27 00:55:00,
2013-03-26 19:57:00,34.6,21.0,30.23,West,274,0.0,0.0,57,0.00,,BKN060,0.00,VWS V14.01,2013-03-27 00:57:00,
2013-03-26 20:00:00,31.9,19.6,30.24,West,270,0.0,0.0,60,0.00,,---,0.00,VWS V14.01,2013-03-27 01:00:00,
2013-03-26 20:05:00,31.8,19.5,30.24,West,277,0.0,0.0,60,0.00,,CLR,0.00,VWS V14.01,2013-03-27 01:05:00,
2013-03-26 20:07:00,34.1,20.5,30.23,West,273,0.0,0.0,57,0.00,,BKN060,0.00,VWS V14.01,2013-03-27 01:07:00,
2013-03-26 20:10:00,31.5,19.2,30.24,West,277,0.0,0.0,60,0.00,,CLR,0.00,VWS V14.01,2013-03-27 01:10:00,
2013-03-26 20:12:00,34.0,20.4,30.23,West,278,0.0,0.0,57,0.00,,BKN060,0.00,VWS V14.01,2013-03-27 01:12:00,
2013-03-26 20:15:00,31.3,19.4,30.25,West,270,0.0,0.0,61,0.00,,---,0.00,VWS V14.01,2013-03-27 01:15:00,
2013-03-26 20:17:00,33.8,20.6,30.23,West,267,0.0,6.0,58,0.00,,BKN060,0.00,VWS V14.01,2013-03-27 01:17:00,
2013-03-26 20:20:00,31.2,19.3,30.25,West,270,0.0,0.0,61,0.00,,---,0.00,VWS V14.01,2013-03-27 01:20:00,
2013-03-26 20:22:00,33.5,20.3,30.23,WNW,284,5.0,5.0,58,0.00,,BKN060,0.00,VWS V14.01,2013-03-27 01:22:00,
2013-03-26 20:25:00,30.9,19.4,30.25,West,270,0.0,0.0,62,0.00,,---,0.00,VWS V14.01,2013-03-27 01:25:00,
2013-03-26 20:27:00,33.4,19.8,30.23,West,275,0.0,5.0,57,0.00,,BKN060,0.00,VWS V14.01,2013-03-27 01:27:00,
2013-03-26 20:30:00,30.7,19.2,30.25,West,270,0.0,0.0,62,0.00,,---,0.00,VWS V14.01,2013-03-27 01:30:00,
2013-03-26 20:32:00,33.2,20.0,30.24,West,275,0.0,0.0,58,0.00,,BKN060,0.00,VWS V14.01,2013-03-27 01:32:00,
2013-03-26 20:35:00,30.4,19.0,30.25,West,270,0.0,0.0,62,0.00,,---,0.00,VWS V14.01,2013-03-27 01:35:00,
2013-03-26 20:40:00,30.3,19.2,30.25,West,270,0.0,0.0,63,0.00,,---,0.00,VWS V14.01,2013-03-27 01:40:00,
2013-03-26 20:45:00,30.1,19.0,30.25,West,270,0.0,0.0,63,0.00,,---,0.00,VWS V14.01,2013-03-27 01:45:00,
2013-03-26 20:47:00,32.5,19.8,30.24,West,277,0.0,0.0,59,0.00,,BKN060,0.00,VWS V14.01,2013-03-27 01:47:00,
2013-03-26 20:50:00,30.0,19.0,30.25,West,270,0.0,0.0,63,0.00,,---,0.00,VWS V14.01,2013-03-27 01:50:00,
2013-03-26 20:52:00,32.4,19.7,30.24,West,277,0.0,0.0,59,0.00,,BKN060,0.00,VWS V14.01,2013-03-27 01:52:00,
2013-03-26 20:55:00,29.8,19.1,30.25,West,277,0.0,0.0,64,0.00,,CLR,0.00,VWS V14.01,2013-03-27 01:55:00,
2013-03-26 21:00:00,29.7,19.0,30.25,West,270,0.0,0.0,64,0.00,,---,0.00,VWS V14.01,2013-03-27 02:00:00,
2013-03-26 21:02:00,31.9,19.6,30.24,West,277,0.0,0.0,60,0.00,,CLR,0.00,VWS V14.01,2013-03-27 02:02:00,
2013-03-26 21:05:00,29.5,18.8,30.25,West,270,0.0,0.0,64,0.00,,---,0.00,VWS V14.01,2013-03-27 02:05:00,
2013-03-26 21:10:00,29.4,18.7,30.25,West,277,0.0,0.0,64,0.00,,CLR,0.00,VWS V14.01,2013-03-27 02:10:00,
2013-03-26 21:15:00,29.3,19.0,30.25,West,270,0.0,0.0,65,0.00,,---,0.00,VWS V14.01,2013-03-27 02:15:00,
2013-03-26 21:17:00,31.3,19.4,30.25,West,277,0.0,0.0,61,0.00,,CLR,0.00,VWS V14.01,2013-03-27 02:17:00,
2013-03-26 21:20:00,29.1,18.8,30.25,West,270,0.0,0.0,65,0.00,,---,0.00,VWS V14.01,2013-03-27 02:20:00,
2013-03-26 21:22:00,31.2,19.3,30.25,West,277,0.0,0.0,61,0.00,,CLR,0.00,VWS V14.01,2013-03-27 02:22:00,
2013-03-26 21:25:00,29.0,18.7,30.25,West,277,0.0,0.0,65,0.00,,CLR,0.00,VWS V14.01,2013-03-27 02:25:00,
2013-03-26 21:27:00,30.9,19.4,30.25,West,277,0.0,0.0,62,0.00,,CLR,0.00,VWS V14.01,2013-03-27 02:27:00,
2013-03-26 21:30:00,28.8,18.5,30.25,West,277,0.0,0.0,65,0.00,,CLR,0.00,VWS V14.01,2013-03-27 02:30:00,
2013-03-26 21:32:00,30.7,19.2,30.25,West,277,0.0,0.0,62,0.00,,CLR,0.00,VWS V14.01,2013-03-27 02:32:00,
2013-03-26 21:35:00,28.7,18.4,30.25,West,270,0.0,0.0,65,0.00,,---,0.00,VWS V14.01,2013-03-27 02:35:00,
2013-03-26 21:37:00,30.4,19.0,30.25,West,277,0.0,0.0,62,0.00,,CLR,0.00,VWS V14.01,2013-03-27 02:37:00,
2013-03-26 21:40:00,28.5,18.6,30.25,West,270,0.0,0.0,66,0.00,,---,0.00,VWS V14.01,2013-03-27 02:40:00,
2013-03-26 21:42:00,30.3,19.2,30.25,West,277,0.0,0.0,63,0.00,,CLR,0.00,VWS V14.01,2013-03-27 02:42:00,
2013-03-26 21:45:00,28.4,18.5,30.25,West,277,0.0,0.0,66,0.00,,CLR,0.00,VWS V14.01,2013-03-27 02:45:00,
2013-03-26 21:50:00,28.4,18.5,30.25,West,277,0.0,0.0,66,0.00,,CLR,0.00,VWS V14.01,2013-03-27 02:50:00,
2013-03-26 21:52:00,30.0,19.0,30.25,West,277,0.0,0.0,63,0.00,,CLR,0.00,VWS V14.01,2013-03-27 02:52:00,
2013-03-26 21:55:00,28.2,18.3,30.25,West,270,0.0,0.0,66,0.00,,---,0.00,VWS V14.01,2013-03-27 02:55:00,
2013-03-26 22:00:00,28.1,18.2,30.26,West,277,0.0,0.0,66,0.00,,CLR,0.00,VWS V14.01,2013-03-27 03:00:00,
2013-03-26 22:02:00,29.7,19.0,30.25,West,277,0.0,0.0,64,0.00,,CLR,0.00,VWS V14.01,2013-03-27 03:02:00,
2013-03-26 22:05:00,27.9,18.4,30.26,West,277,0.0,0.0,67,0.00,,CLR,0.00,VWS V14.01,2013-03-27 03:05:00,
2013-03-26 22:07:00,29.5,18.8,30.25,West,277,0.0,0.0,64,0.00,,CLR,0.00,VWS V14.01,2013-03-27 03:07:00,
2013-03-26 22:10:00,27.9,18.4,30.26,West,277,0.0,0.0,67,0.00,,CLR,0.00,VWS V14.01,2013-03-27 03:10:00,
2013-03-26 22:15:00,27.8,18.6,30.26,West,277,0.0,0.0,68,0.00,,CLR,0.00,VWS V14.01,2013-03-27 03:15:00,
2013-03-26 22:17:00,29.3,19.0,30.25,West,277,0.0,0.0,65,0.00,,CLR,0.00,VWS V14.01,2013-03-27 03:17:00,
2013-03-26 22:20:00,27.8,18.6,30.26,West,277,0.0,0.0,68,0.00,,CLR,0.00,VWS V14.01,2013-03-27 03:20:00,
2013-03-26 22:22:00,29.1,18.8,30.25,West,277,0.0,0.0,65,0.00,,CLR,0.00,VWS V14.01,2013-03-27 03:22:00,
2013-03-26 22:25:00,27.6,18.4,30.26,West,277,0.0,0.0,68,0.00,,CLR,0.00,VWS V14.01,2013-03-27 03:25:00,
2013-03-26 22:30:00,27.6,18.4,30.26,West,277,0.0,0.0,68,0.00,,CLR,0.00,VWS V14.01,2013-03-27 03:30:00,
2013-03-26 22:35:00,27.5,18.3,30.26,West,277,0.0,0.0,68,0.00,,CLR,0.00,VWS V14.01,2013-03-27 03:35:00,
2013-03-26 22:37:00,28.7,18.4,30.25,West,277,0.0,0.0,65,0.00,,CLR,0.00,VWS V14.01,2013-03-27 03:37:00,
2013-03-26 22:40:00,27.3,18.5,30.26,West,277,0.0,0.0,69,0.00,,CLR,0.00,VWS V14.01,2013-03-27 03:40:00,
2013-03-26 22:42:00,28.5,18.6,30.25,West,277,0.0,0.0,66,0.00,,CLR,0.00,VWS V14.01,2013-03-27 03:42:00,
2013-03-26 22:45:00,27.3,18.5,30.26,West,277,0.0,0.0,69,0.00,,CLR,0.00,VWS V14.01,2013-03-27 03:45:00,
2013-03-26 22:50:00,27.3,18.5,30.26,West,277,0.0,0.0,69,0.00,,CLR,0.00,VWS V14.01,2013-03-27 03:50:00,
2013-03-26 22:55:00,27.2,18.4,30.26,West,277,0.0,0.0,69,0.00,,CLR,0.00,VWS V14.01,2013-03-27 03:55:00,
2013-03-26 22:57:00,28.2,18.3,30.25,West,277,0.0,0.0,66,0.00,,CLR,0.00,VWS V14.01,2013-03-27 03:57:00,
2013-03-26 23:00:00,27.2,18.7,30.26,West,277,0.0,0.0,70,0.00,,FEW060,0.00,VWS V14.01,2013-03-27 04:00:00,
2013-03-26 23:05:00,27.2,18.7,30.26,West,277,0.0,0.0,70,0.00,,FEW060,0.00,VWS V14.01,2013-03-27 04:05:00,
2013-03-26 23:10:00,27.2,18.7,30.26,West,277,0.0,0.0,70,0.00,,FEW060,0.00,VWS V14.01,2013-03-27 04:10:00,
2013-03-26 23:15:00,27.2,18.7,30.26,West,270,0.0,0.0,70,0.00,,---,0.00,VWS V14.01,2013-03-27 04:15:00,
2013-03-26 23:20:00,27.3,19.1,30.26,West,277,0.0,0.0,71,0.00,,FEW060,0.00,VWS V14.01,2013-03-27 04:20:00,
2013-03-26 23:25:00,27.3,19.1,30.26,West,277,0.0,0.0,71,0.00,,FEW060,0.00,VWS V14.01,2013-03-27 04:25:00,
2013-03-26 23:30:00,27.5,19.4,30.26,West,279,0.0,6.0,71,0.00,,FEW060,0.00,VWS V14.01,2013-03-27 04:30:00,
2013-03-26 23:35:00,27.5,19.4,30.26,West,281,0.0,0.0,71,0.00,,FEW060,0.00,VWS V14.01,2013-03-27 04:35:00,
2013-03-26 23:40:00,27.6,19.4,30.26,West,281,0.0,0.0,71,0.00,,FEW060,0.00,VWS V14.01,2013-03-27 04:40:00,
2013-03-26 23:45:00,27.6,19.4,30.26,West,281,0.0,0.0,71,0.00,,FEW060,0.00,VWS V14.01,2013-03-27 04:45:00,
2013-03-26 23:50:00,27.6,19.4,30.26,West,281,0.0,0.0,71,0.00,,FEW060,0.00,VWS V14.01,2013-03-27 04:50:00,
2013-03-26 23:55:00,27.6,19.4,30.26,West,281,0.0,0.0,71,0.00,,FEW060,0.00,VWS V14.01,2013-03-27 04:55:00,